Previsão horária em Jugowice

Hoje, 24 Junho, Quinta-feira

Tempo Temperatura Precipitação Vento Pressão Humidade
00:00 +18°C° 0.1 mm 1 m/s 724 mmHg 97%
01:00 +16°C° 0.1 mm 1 m/s 724 mmHg 97%
02:00 +16°C° 1.5 mm 1 m/s 723 mmHg 98%
03:00 +16°C° 1.5 mm 1 m/s 723 mmHg 98%
04:00 +18°C° 1.5 mm 1 m/s 723 mmHg 98%
05:00 +18°C° 0.9 mm 1 m/s 723 mmHg 98%
06:00 +18°C° 0.9 mm 1 m/s 722 mmHg 98%
07:00 +18°C° 0.9 mm 1 m/s 722 mmHg 98%
08:00 +19°C° 0.1 mm 1 m/s 722 mmHg 96%
09:00 +20°C° 0.1 mm 1 m/s 722 mmHg 94%
10:00 +21°C° 0.1 mm 1 m/s 722 mmHg 92%
11:00 +21°C° 0 mm 2 m/s 722 mmHg 83%
12:00 +24°C° 0 mm 3 m/s 722 mmHg 74%
13:00 +26°C° 0 mm 3 m/s 722 mmHg 66%
14:00 +23°C° 0 mm 4 m/s 723 mmHg 67%
15:00 +22°C° 0 mm 4 m/s 723 mmHg 69%
16:00 +21°C° 0 mm 4 m/s 723 mmHg 71%
17:00 +20°C° 0 mm 4 m/s 722 mmHg 77%
18:00 +18°C° 0 mm 4 m/s 722 mmHg 83%
19:00 +15°C° 0 mm 4 m/s 722 mmHg 88%
20:00 +14°C° 0.1 mm 3 m/s 722 mmHg 90%
21:00 +14°C° 0.1 mm 3 m/s 723 mmHg 92%
22:00 +14°C° 0.1 mm 2 m/s 723 mmHg 94%
23:00 +14°C° 0.1 mm 2 m/s 723 mmHg 94%

Amanhã, 25 Junho, Sexta-feira

Tempo Temperatura Precipitação Vento Pressão Humidade
00:00 +14°C° 0.1 mm 2 m/s 722 mmHg 94%
01:00 +14°C° 0.1 mm 2 m/s 722 mmHg 94%
02:00 +14°C° 0 mm 2 m/s 722 mmHg 94%
03:00 +14°C° 0 mm 2 m/s 722 mmHg 94%
04:00 +14°C° 0 mm 2 m/s 723 mmHg 94%
05:00 +14°C° 0.1 mm 1 m/s 723 mmHg 94%
06:00 +14°C° 0.1 mm 1 m/s 723 mmHg 94%
07:00 +14°C° 0.1 mm 1 m/s 723 mmHg 94%
08:00 +15°C° 0.1 mm 1 m/s 724 mmHg 92%
09:00 +15°C° 0.1 mm 1 m/s 724 mmHg 89%
10:00 +16°C° 0.1 mm 2 m/s 724 mmHg 87%
11:00 +18°C° 0.3 mm 1 m/s 724 mmHg 83%
12:00 +19°C° 0.3 mm 1 m/s 724 mmHg 79%
13:00 +20°C° 0.3 mm 1 m/s 724 mmHg 74%
14:00 +20°C° 0.5 mm 1 m/s 724 mmHg 76%
15:00 +20°C° 0.5 mm 1 m/s 724 mmHg 78%
16:00 +19°C° 0.5 mm 1 m/s 724 mmHg 79%
17:00 +19°C° 0.2 mm 1 m/s 724 mmHg 81%
18:00 +19°C° 0.2 mm 1 m/s 723 mmHg 84%
19:00 +18°C° 0.2 mm 1 m/s 723 mmHg 86%
20:00 +16°C° 0 mm 1 m/s 724 mmHg 88%
21:00 +15°C° 0 mm 1 m/s 724 mmHg 89%
22:00 +13°C° 0 mm 0 m/s 724 mmHg 91%
23:00 +13°C° 0 mm 0 m/s 724 mmHg 91%

Depois de amanhã, 26 Junho, Sábado

Tempo Temperatura Precipitação Vento Pressão Humidade
00:00 +12°C° 0 mm 0 m/s 724 mmHg 91%
01:00 +12°C° 0 mm 0 m/s 724 mmHg 91%
02:00 +12°C° 0 mm 0 m/s 724 mmHg 91%
03:00 +13°C° 0 mm 1 m/s 724 mmHg 91%
04:00 +13°C° 0 mm 1 m/s 724 mmHg 91%
05:00 +13°C° 0 mm 0 m/s 724 mmHg 86%
06:00 +15°C° 0 mm 0 m/s 725 mmHg 82%
07:00 +17°C° 0 mm 0 m/s 725 mmHg 77%
08:00 +18°C° 0.1 mm 0 m/s 725 mmHg 72%
09:00 +21°C° 0.1 mm 1 m/s 725 mmHg 67%
10:00 +21°C° 0.1 mm 2 m/s 725 mmHg 61%
11:00 +21°C° 0.4 mm 2 m/s 725 mmHg 62%
12:00 +23°C° 0.4 mm 2 m/s 725 mmHg 62%
13:00 +23°C° 0.4 mm 2 m/s 725 mmHg 63%
14:00 +23°C° 0.4 mm 2 m/s 725 mmHg 63%
15:00 +23°C° 0.4 mm 1 m/s 725 mmHg 63%
16:00 +23°C° 0.4 mm 1 m/s 724 mmHg 63%
17:00 +22°C° 0.2 mm 1 m/s 724 mmHg 69%
18:00 +21°C° 0.2 mm 1 m/s 724 mmHg 74%
19:00 +20°C° 0.2 mm 1 m/s 724 mmHg 79%
20:00 +19°C° 0 mm 1 m/s 724 mmHg 82%
21:00 +18°C° 0 mm 1 m/s 724 mmHg 84%
22:00 +15°C° 0 mm 0 m/s 724 mmHg 87%
23:00 +14°C° 0 mm 0 m/s 724 mmHg 87%

27 Junho, Domingo

Tempo Temperatura Precipitação Vento Pressão Humidade
00:00 +14°C° 0 mm 0 m/s 724 mmHg 88%
01:00 +14°C° 0 mm 0 m/s 724 mmHg 88%
02:00 +13°C° 0 mm 0 m/s 724 mmHg 89%
03:00 +13°C° 0 mm 0 m/s 724 mmHg 89%
04:00 +14°C° 0 mm 1 m/s 724 mmHg 89%
05:00 +15°C° 0 mm 0 m/s 724 mmHg 85%
06:00 +16°C° 0 mm 0 m/s 724 mmHg 81%
07:00 +18°C° 0 mm 0 m/s 725 mmHg 76%
08:00 +21°C° 0 mm 1 m/s 724 mmHg 70%
09:00 +23°C° 0 mm 1 m/s 724 mmHg 64%
10:00 +24°C° 0 mm 2 m/s 724 mmHg 57%
11:00 +25°C° 0 mm 2 m/s 724 mmHg 55%
12:00 +25°C° 0 mm 3 m/s 724 mmHg 53%
13:00 +26°C° 0 mm 3 m/s 724 mmHg 51%
14:00 +26°C° 0 mm 3 m/s 724 mmHg 52%
15:00 +26°C° 0 mm 3 m/s 724 mmHg 54%
16:00 +26°C° 0 mm 3 m/s 724 mmHg 55%
17:00 +25°C° 0 mm 2 m/s 724 mmHg 61%
18:00 +24°C° 0 mm 2 m/s 724 mmHg 67%
19:00 +23°C° 0 mm 1 m/s 724 mmHg 73%
20:00 +21°C° 0 mm 1 m/s 723 mmHg 75%
21:00 +20°C° 0 mm 1 m/s 723 mmHg 78%
22:00 +18°C° 0 mm 1 m/s 723 mmHg 81%
23:00 +18°C° 0 mm 1 m/s 723 mmHg 81%

28 Junho, Segunda-feira

Tempo Temperatura Precipitação Vento Pressão Humidade
00:00 +18°C° 0 mm 1 m/s 723 mmHg 82%
01:00 +16°C° 0 mm 1 m/s 723 mmHg 82%
02:00 +16°C° 0 mm 1 m/s 723 mmHg 82%
03:00 +16°C° 0 mm 1 m/s 723 mmHg 81%
04:00 +16°C° 0 mm 1 m/s 723 mmHg 80%
05:00 +19°C° 0 mm 1 m/s 723 mmHg 76%
06:00 +20°C° 0 mm 1 m/s 723 mmHg 71%
07:00 +22°C° 0 mm 1 m/s 723 mmHg 66%
08:00 +24°C° 0 mm 2 m/s 723 mmHg 62%
09:00 +25°C° 0 mm 2 m/s 724 mmHg 57%
10:00 +27°C° 0 mm 2 m/s 724 mmHg 53%
11:00 +28°C° 0 mm 2 m/s 723 mmHg 51%
12:00 +29°C° 0 mm 3 m/s 723 mmHg 49%
13:00 +30°C° 0 mm 3 m/s 723 mmHg 47%
14:00 +30°C° 0 mm 3 m/s 723 mmHg 47%
15:00 +30°C° 0 mm 3 m/s 723 mmHg 48%
16:00 +30°C° 0 mm 3 m/s 723 mmHg 48%
17:00 +29°C° 0 mm 2 m/s 723 mmHg 55%
18:00 +27°C° 0 mm 2 m/s 722 mmHg 62%
19:00 +26°C° 0 mm 2 m/s 722 mmHg 69%
20:00 +25°C° 0 mm 2 m/s 722 mmHg 72%
21:00 +23°C° 0 mm 1 m/s 722 mmHg 74%
22:00 +22°C° 0 mm 1 m/s 722 mmHg 77%
23:00 +21°C° 0 mm 1 m/s 722 mmHg 77%

29 Junho, Terça-feira

Tempo Temperatura Precipitação Vento Pressão Humidade
00:00 +21°C° 0 mm 1 m/s 722 mmHg 77%
01:00 +21°C° 0 mm 1 m/s 722 mmHg 78%
02:00 +21°C° 0 mm 1 m/s 722 mmHg 77%
03:00 +21°C° 0 mm 1 m/s 722 mmHg 76%
04:00 +21°C° 0 mm 1 m/s 721 mmHg 76%
05:00 +22°C° 0 mm 1 m/s 722 mmHg 73%
06:00 +23°C° 0 mm 1 m/s 722 mmHg 70%
07:00 +24°C° 0 mm 1 m/s 722 mmHg 67%
08:00 +26°C° 0 mm 1 m/s 722 mmHg 62%
09:00 +27°C° 0 mm 1 m/s 722 mmHg 57%
10:00 +28°C° 0 mm 2 m/s 722 mmHg 52%
11:00 +29°C° 0 mm 2 m/s 722 mmHg 51%
12:00 +30°C° 0 mm 2 m/s 722 mmHg 51%
13:00 +30°C° 0 mm 2 m/s 722 mmHg 50%
14:00 +30°C° 0.5 mm 2 m/s 722 mmHg 53%
15:00 +29°C° 0.5 mm 2 m/s 722 mmHg 57%
16:00 +29°C° 0.5 mm 2 m/s 722 mmHg 60%
17:00 +28°C° 0.4 mm 2 m/s 722 mmHg 66%
18:00 +27°C° 0.4 mm 1 m/s 722 mmHg 72%
19:00 +25°C° 0.4 mm 1 m/s 722 mmHg 78%
20:00 +24°C° 0.1 mm 1 m/s 722 mmHg 82%
21:00 +23°C° 0.1 mm 1 m/s 722 mmHg 86%
22:00 +21°C° 0.1 mm 1 m/s 722 mmHg 91%
23:00 +21°C° 0.1 mm 1 m/s 722 mmHg 92%
Mostrar mais

Necessitamos do seu Consentimento

A Meteoprog e os seus Fornecedores de Serviços podem armazenar e aceder a dados pessoais como cookies, identificadores do dispositivo ou outras tecnologias semelhantes existentes no seu dispositivo e processar estes dados para personalizar conteúdos e anúncios, assim como funcionalidades nas redes sociais e análise de tráfego.

  • Armazenar e/ou aceder a informações no seu dispositivo

    Os cookies, identificadores do dispositivo ou outras informações podem ser armazenados ou acedidos no seu dispositivo, para os fins acima indicados.

  • Anúncios e conteúdos personalizados, medição de anúncios e conteúdos, dados sobre o público-alvo e desenvolvimento de produtos

    Os anúncios e os conteúdos podem ser personalizados com base num perfil. Podem ser adicionados dados adicionais para uma maior personalização dos anúncios e dos conteúdos. A eficácia dos anúncios e dos conteúdos pode ser medida. Podem ser obtidas informações sobre o público que visualizou os anúncios e os conteúdos. Estes dados podem ser usados para desenvolver ou melhorar sistemas, softwares ou a experiência do utilizador.

Ao clicar em "Eu concordo”, permitirá o uso de cookies, identificadores do dispositivo e web beacons mencionados ou outras tecnologias semelhantes. As configurações do navegador do seu dispositivo podem ser alteradas.

Para certos fins, podem ser invocados interesses legítimos ao invés de consentimento. Pode ler mais informação sobre este assunto na nossa Política de Privacidade e Cookies.